KK4OHF Weather Reports


time (UTC)temp
C
wind
direction
speed
KPH
gust
KPH
rain 1hr
cm
rain 24hr
cm
rain mn
cm
humidity
%
barometer
mb
20260506080505 16 155 0.0 0.0 0.00 0.00 0.00 85 1011.6
20260506073506 16 142 0.0 0.0 0.00 0.00 0.00 84 1011.6
20260506073005 16 156 0.0 0.0 0.00 0.00 0.00 83 1011.6
20260506072505 16 156 0.0 0.0 0.00 0.00 0.00 82 1011.6
20260506071007 17 154 0.0 0.0 0.00 0.00 0.00 83 1012.5
20260506062505 16 121 0.0 0.0 0.00 0.00 0.00 79 1012.5
20260506062005 16 121 0.0 0.0 0.00 0.00 0.00 79 1012.5
20260506061505 16 121 0.0 0.0 0.00 0.00 0.00 77 1012.5
20260506061006 16 121 0.0 0.0 0.00 0.00 0.00 77 1012.5
20260506060505 17 121 0.0 0.0 0.00 0.00 0.00 76 1012.5
20260506050505 18 188 0.0 1.6 0.00 0.00 0.00 66 1012.1
20260506045005 18 179 0.0 4.8 0.00 0.00 0.00 64 1012.6
20260506044005 18 132 1.6 4.8 0.00 0.00 0.00 63 1012.6
20260506043506 19 118 1.6 3.2 0.00 0.00 0.00 62 1012.6
20260506043005 19 159 1.6 3.2 0.00 0.00 0.00 62 1012.6
20260506042505 19 134 0.0 0.0 0.00 0.00 0.00 61 1012.6
20260506042006 19 153 0.0 1.6 0.00 0.00 0.00 60 1012.6
20260506041506 19 224 0.0 1.6 0.00 0.00 0.00 60 1012.6
20260506041005 19 191 0.0 3.2 0.00 0.00 0.00 60 1012.6
20260506040506 20 138 0.0 3.2 0.00 0.00 0.00 59 1012.6
20260506035506 20 154 1.6 4.8 0.00 0.00 0.00 58 1012.6
20260506035005 20 169 1.6 9.7 0.00 0.00 0.00 58 1012.6
20260506034506 20 125 3.2 9.7 0.00 0.00 0.00 58 1012.6
20260506034005 20 163 3.2 4.8 0.00 0.00 0.00 57 1012.6
20260506033505 20 137 3.2 8.0 0.00 0.00 0.00 57 1012.6
20260506033005 20 199 1.6 8.0 0.00 0.00 0.00 57 1012.6
20260506032005 20 128 1.6 4.8 0.00 0.00 0.00 57 1012.6
20260506031506 20 128 0.0 3.2 0.00 0.00 0.00 56 1012.6
20260506030505 20 142 0.0 4.8 0.00 0.00 0.00 56 1012.6
20260506030006 20 100 1.6 4.8 0.00 0.00 0.00 55 1012.6
20260506025505 20 132 1.6 3.2 0.00 0.00 0.00 55 1012.6
20260506025005 20 123 1.6 8.0 0.00 0.00 0.00 54 1012.6
20260506024505 20 139 3.2 4.8 0.00 0.00 0.00 54 1012.6
20260506023006 20 123 1.6 8.0 0.00 0.00 0.00 53 1012.1
20260506022505 20 182 1.6 8.0 0.00 0.00 0.00 53 1012.1
20260506021505 20 161 1.6 4.8 0.00 0.00 0.00 54 1012.1
20260506020505 20 169 3.2 4.8 0.00 0.00 0.00 53 1012.1
20260506020005 21 151 3.2 8.0 0.00 0.00 0.00 53 1012.1
20260506015505 21 345 1.6 4.8 0.00 0.00 0.00 53 1012.1
20260506015005 21 144 3.2 4.8 0.00 0.00 0.00 52 1012.1
20260506014505 21 107 3.2 9.7 0.00 0.00 0.00 52 1012.1
20260506014005 21 126 3.2 4.8 0.00 0.00 0.00 52 1012.1
20260506013505 21 127 0.0 3.2 0.00 0.00 0.00 53 1012.1
20260506013005 21 133 1.6 4.8 0.00 0.00 0.00 52 1012.1
20260506011505 21 185 3.2 8.0 0.00 0.00 0.00 52 1012.1
20260506011005 21 150 1.6 4.8 0.00 0.00 0.00 52 1012.1
20260506010505 21 141 1.6 4.8 0.00 0.00 0.00 52 1012.1
20260506010006 22 152 1.6 3.2 0.00 0.00 0.00 52 1012.1
20260506005505 22 138 1.6 4.8 0.00 0.00 0.00 51 1012.1
20260506005006 22 124 1.6 4.8 0.00 0.00 0.00 51 1012.1
20260506004505 22 138 1.6 4.8 0.00 0.00 0.00 50 1012.1
20260506004005 22 144 3.2 11.3 0.00 0.00 0.00 50 1012.1
20260506003505 22 137 1.6 4.8 0.00 0.00 0.00 49 1012.1
20260506003005 22 153 1.6 4.8 0.00 0.00 0.00 49 1012.1
20260506001505 22 167 1.6 3.2 0.00 0.00 0.00 48 1012.1
20260506001005 22 92 0.0 1.6 0.00 0.00 0.00 47 1012.1
20260506000505 22 129 0.0 1.6 0.00 0.00 0.00 46 1012.1
20260506000005 23 94 0.0 3.2 0.00 0.00 0.00 46 1012.1
20260505235504 23 81 0.0 3.2 0.00 0.00 0.00 46 1012.1
20260505235005 23 150 0.0 3.2 0.00 0.00 0.00 46 1012.1
20260505234505 23 157 0.0 4.8 0.00 0.00 0.00 45 1012.1
20260505234005 23 149 1.6 8.0 0.00 0.00 0.00 45 1012.1
20260505232505 23 115 3.2 8.0 0.00 0.00 0.00 43 1012.1
20260505232006 23 182 3.2 11.3 0.00 0.00 0.00 42 1012.1
20260505231504 23 241 1.6 4.8 0.00 0.00 0.00 42 1012.1
20260505230005 24 340 1.6 8.0 0.00 0.00 0.00 41 1012.1
20260505225506 24 296 3.2 8.0 0.00 0.00 0.00 41 1012.1
20260505225005 24 185 3.2 8.0 0.00 0.00 0.00 40 1012.1
20260505224505 24 138 4.8 11.3 0.00 0.00 0.00 39 1012.1
20260505224006 25 30 3.2 8.0 0.00 0.00 0.00 38 1012.0
20260505223505 25 106 3.2 11.3 0.00 0.00 0.00 37 1012.0
20260505223005 25 141 4.8 11.3 0.00 0.00 0.00 38 1012.0
20260505222505 25 50 4.8 11.3 0.00 0.00 0.00 38 1012.0
20260505222006 25 75 3.2 11.3 0.00 0.00 0.00 38 1012.0
20260505221505 25 168 3.2 11.3 0.00 0.00 0.00 38 1012.0
20260505220505 25 116 3.2 14.5 0.00 0.00 0.00 37 1012.0
20260505215505 25 50 4.8 16.1 0.00 0.00 0.00 35 1012.0
20260505215005 25 142 3.2 16.1 0.00 0.00 0.00 38 1012.0
20260505214504 25 174 3.2 11.3 0.00 0.00 0.00 38 1012.0
20260505214005 25 117 3.2 12.9 0.00 0.00 0.00 36 1012.0
20260505213505 26 136 4.8 12.9 0.00 0.00 0.00 37 1012.0
20260505213005 26 162 1.6 4.8 0.00 0.00 0.00 38 1012.5
20260505212504 26 131 3.2 12.9 0.00 0.00 0.00 38 1012.5
20260505212005 26 128 3.2 9.7 0.00 0.00 0.00 38 1012.5
20260505211505 26 136 1.6 9.7 0.00 0.00 0.00 40 1012.5
20260505211006 26 132 3.2 12.9 0.00 0.00 0.00 38 1012.5
20260505210006 26 112 1.6 8.0 0.00 0.00 0.00 37 1012.5
20260505205505 26 255 3.2 4.8 0.00 0.00 0.00 38 1012.5
20260505205005 26 172 3.2 12.9 0.00 0.00 0.00 37 1012.5
20260505204505 26 163 4.8 12.9 0.00 0.00 0.00 37 1012.5
20260505203505 26 77 1.6 4.8 0.00 0.00 0.00 37 1013.0
20260505203005 26 290 3.2 11.3 0.00 0.00 0.00 36 1013.0
20260505202504 26 111 3.2 12.9 0.00 0.00 0.00 38 1013.0
20260505202005 26 296 3.2 11.3 0.00 0.00 0.00 37 1013.0
20260505201505 26 79 3.2 14.5 0.00 0.00 0.00 36 1013.0
20260505201004 26 81 3.2 8.0 0.00 0.00 0.00 37 1013.2
20260505200505 26 272 3.2 9.7 0.00 0.00 0.00 38 1013.2
20260505200005 26 157 1.6 4.8 0.00 0.00 0.00 40 1013.2
20260505195504 26 350 3.2 11.3 0.00 0.00 0.00 38 1013.2
20260505195006 26 292 3.2 12.9 0.00 0.00 0.00 37 1013.2
20260505194005 27 157 3.2 12.9 0.00 0.00 0.00 39 1014.9
20260505193506 26 246 1.6 4.8 0.00 0.00 0.00 40 1014.9
20260505193005 26 116 3.2 12.9 0.00 0.00 0.00 40 1014.9
20260505192506 26 138 3.2 11.3 0.00 0.00 0.00 38 1014.9
20260505190505 26 214 3.2 11.3 0.00 0.00 0.00 40 1014.9
20260505190006 26 251 4.8 11.3 0.00 0.00 0.00 41 1014.9
20260505185005 26 93 3.2 8.0 0.00 0.00 0.00 39 1014.9
20260505184505 25 310 3.2 11.3 0.00 0.00 0.00 39 1014.9
20260505183505 25 83 1.6 4.8 0.00 0.00 0.00 42 1014.9
20260505183006 25 121 3.2 8.0 0.00 0.00 0.00 41 1014.9
20260505182504 25 81 3.2 8.0 0.00 0.00 0.00 40 1014.9
20260505182006 25 241 1.6 12.9 0.00 0.00 0.00 40 1014.9
20260505181006 25 358 1.6 11.3 0.00 0.00 0.00 43 1014.9
20260505180505 25 210 1.6 11.3 0.00 0.00 0.00 40 1014.9
20260505180006 25 123 3.2 12.9 0.00 0.00 0.00 41 1014.9
20260505175505 25 294 3.2 9.7 0.00 0.00 0.00 40 1014.9
20260505175005 25 66 3.2 4.8 0.00 0.00 0.00 41 1014.9
20260505174505 25 349 1.6 4.8 0.00 0.00 0.00 41 1014.9
20260505174006 25 174 3.2 4.8 0.00 0.00 0.00 41 1014.9
20260505173505 25 234 3.2 11.3 0.00 0.00 0.00 41 1014.9
20260505173005 25 184 4.8 12.9 0.00 0.00 0.00 40 1014.9
20260505172506 25 284 3.2 11.3 0.00 0.00 0.00 43 1014.9
20260505172006 25 319 3.2 8.0 0.00 0.00 0.00 42 1014.9
20260505171006 25 99 3.2 11.3 0.00 0.00 0.00 43 1014.9
20260505170506 25 263 3.2 8.0 0.00 0.00 0.00 45 1014.9
20260505170005 25 72 4.8 9.7 0.00 0.00 0.00 44 1015.0
20260505165505 24 80 3.2 11.3 0.00 0.00 0.00 44 1015.0
20260505165005 24 291 4.8 11.3 0.00 0.00 0.00 44 1015.0
20260505164506 24 67 4.8 12.9 0.00 0.00 0.00 42 1015.0
20260505164006 24 136 4.8 12.9 0.00 0.00 0.00 43 1015.0
20260505163505 24 101 4.8 12.9 0.00 0.00 0.00 44 1015.0
20260505163007 24 47 4.8 9.7 0.00 0.00 0.00 45 1015.0
20260505162006 23 24 3.2 11.3 0.00 0.00 0.00 44 1015.0
20260505161505 23 23 3.2 12.9 0.00 0.00 0.00 44 1015.0
20260505161005 24 171 8.0 19.3 0.00 0.00 0.00 44 1015.0
20260505153006 23 108 3.2 9.7 0.00 0.00 0.00 46 1015.0
20260505152505 23 26 3.2 11.3 0.00 0.00 0.00 46 1015.0
20260505152005 24 222 3.2 11.3 0.00 0.00 0.00 45 1015.0
20260505151506 24 340 0.0 11.3 0.00 0.00 0.00 47 1015.0
20260505150505 23 80 0.0 1.6 0.00 0.00 0.00 50 1015.0
20260505140505 20 193 0.0 0.0 0.00 0.00 0.00 67 1014.8
20260505125005 13 229 0.0 0.0 0.00 0.00 0.00 86 1013.6
20260505124504 12 229 0.0 0.0 0.00 0.00 0.00 87 1013.6
20260505123005 11 229 0.0 0.0 0.00 0.00 0.00 91 1013.6
20260505122505 11 229 0.0 0.0 0.00 0.00 0.00 91 1013.6
20260505122005 11 229 0.0 0.0 0.00 0.00 0.00 91 1013.6
20260505121505 10 229 0.0 0.0 0.00 0.00 0.00 92 1013.6
20260505121005 10 229 0.0 0.0 0.00 0.00 0.00 92 1013.6
20260505120505 10 229 0.0 0.0 0.00 0.00 0.00 92 1013.6
20260505120006 10 229 0.0 0.0 0.00 0.00 0.00 92 1013.6
20260505114505 8 229 0.0 0.0 0.00 0.00 0.00 93 1013.6
20260505114005 8 229 0.0 0.0 0.00 0.00 0.00 93 1013.6
20260505113505 8 229 0.0 0.0 0.00 0.00 0.00 93 1013.6
20260505113006 8 229 0.0 0.0 0.00 0.00 0.00 93 1013.6
20260505112505 8 229 0.0 0.0 0.00 0.00 0.00 93 1013.6
20260505112005 8 229 0.0 0.0 0.00 0.00 0.00 93 1013.6
20260505111505 8 229 0.0 0.0 0.00 0.00 0.00 93 1013.6
20260505111006 7 229 0.0 0.0 0.00 0.00 0.00 93 1013.6
20260505110505 7 229 0.0 0.0 0.00 0.00 0.00 93 1013.6
20260505101505 7 229 0.0 0.0 0.00 0.00 0.00 92 1013.7
20260505101006 7 229 0.0 0.0 0.00 0.00 0.00 92 1013.7
20260505100505 7 229 0.0 0.0 0.00 0.00 0.00 92 1013.7
20260505100005 7 229 0.0 0.0 0.00 0.00 0.00 92 1013.7
20260505095505 8 229 0.0 0.0 0.00 0.00 0.00 92 1013.7
20260505095005 8 229 0.0 0.0 0.00 0.00 0.00 92 1013.7
20260505094507 8 229 0.0 0.0 0.00 0.00 0.00 92 1013.7
20260505094005 8 229 0.0 0.0 0.00 0.00 0.00 92 1013.7
20260505093505 8 229 0.0 0.0 0.00 0.00 0.00 92 1013.7
20260505093005 8 229 0.0 0.0 0.00 0.00 0.00 92 1013.7
20260505092005 8 229 0.0 0.0 0.00 0.00 0.00 92 1013.7
20260505091505 8 229 0.0 0.0 0.00 0.00 0.00 92 1013.7
20260505091005 8 229 0.0 0.0 0.00 0.00 0.00 92 1013.7
20260505090505 8 229 0.0 0.0 0.00 0.00 0.00 92 1013.7
20260505090005 8 229 0.0 0.0 0.00 0.00 0.00 92 1013.7
20260505085504 8 229 0.0 0.0 0.00 0.00 0.00 92 1013.7
20260505085005 8 229 0.0 0.0 0.00 0.00 0.00 92 1013.7
20260505084505 8 229 0.0 0.0 0.00 0.00 0.00 92 1013.7
20260505083006 8 229 0.0 0.0 0.00 0.00 0.00 92 1013.7
20260505082005 8 229 0.0 0.0 0.00 0.00 0.00 92 1013.7
20260505081506 8 229 0.0 0.0 0.00 0.00 0.00 91 1013.7